Regional Weather Roundup
Issued by NWS Jackson, KY

Home | Current Version | Previous Version | Graphics & Text | Print | Product List | Glossary On
Versions: 1 2 3 4 5 6 7 8 9 10 11 12 13 14 15 16 17 18 19 20 21 22 23 24 25 26 27 28 29 30 31 32 33 34 35 36 37 38 39 40 41 42 43 44 45 46 47 48 49 50
000
ASUS43 KJKL 200505
RWRJKL

EAST KENTUCKY HOURLY WEATHER ROUNDUP
NATIONAL WEATHER SERVICE JACKSON KY
1200 AM EST SAT DEC 20 2014

NOTE: "FAIR" INDICATES FEW OR NO CLOUDS BELOW 12,000 FEET WITH
NO SIGNIFICANT WEATHER AND/OR OBSTRUCTIONS TO VISIBILITY.

* THESE REPORTS ARE NOT UNDER NWS QUALITY CONTROL AND MAY NOT
  REPORT WEATHER SUCH AS PRECIPITATION AND FOG.

KYZ079-080-083-085-087-088-110-112-115-119-120-200600
...EASTERN KENTUCKY...

CITY           SKY/WX    TMP DP  RH WIND       PRES   REMARKS
JACKSON        PTCLDY    27  21  78 NE3       30.21S
LONDON         PTCLDY    29  22  75 N5        30.20F WCI  24
SOMERSET*      PTCLDY    30  25  80 CALM      30.25S
MONTICELLO*    CLOUDY    31  27  85 CALM      30.25F
HARLAN APT*    PTCLDY    32  27  80 SE6       30.18F WCI  26
BLACK MTN*       N/A     28  23  80 S3          N/A
PIKEVILLE APT* CLEAR     27  23  86 CALM      30.21S
BIG SANDY*       N/A     26  22  87 E5        30.23S WCI  20
MOREHEAD APT*  MOCLDY    27  21  80 E3        30.27S
$$

KYZ035-036-041-042-044-050-067-078-099-200600
...CENTRAL KENTUCKY...

CITY           SKY/WX    TMP DP  RH WIND       PRES   REMARKS
MT STERLING*   CLEAR     27  23  86 E3        30.26F
FLEMING/MASON* CLEAR     24  21  87 SE3       30.26F
DANVILLE*      CLOUDY    27  23  86 E5        30.24F WCI  21
RICHMOND*      CLOUDY    25  21  86 NE5       30.23F WCI  19
LEXINGTON      PTCLDY    25  20  81 E5        30.25S WCI  19
FRANKFORT      MOCLDY    25  19  78 CALM      30.25S
$$

KYZ091>093-OHZ055-061-077-WVZ005-015-034-035-042-200600
...SOUTHERN OHIO/WEST VIRGINIA...

CITY           SKY/WX    TMP DP  RH WIND       PRES   REMARKS
COVINGTON      CLOUDY    31  20  63 E3        30.25S
COLUMBUS       CLOUDY    29  22  75 VRB6      30.26F WCI  23
DAYTON         CLOUDY    30  22  72 E3        30.25F
WILMINGTON     CLOUDY    28  22  78 E5        30.24F WCI  23
HUNTINGTON     CLOUDY    29  22  75 NE5       30.25F WCI  24
CHARLESTON     CLOUDY    30  22  72 E5        30.25F WCI  25
PINEVILLE*     MOCLDY    29  27  94 MISG      30.25S
BECKLEY        CLOUDY    24  19  81 E3        30.16F
BLUEFIELD      MOCLDY    28  22  78 CALM      30.15R
$$

VAZ002-007-008-TNZ017-027-036-066-071-200600
...SOUTHWEST VIRGINIA/EAST TENNESSEE...

CITY           SKY/WX    TMP DP  RH WIND       PRES   REMARKS
WISE*          PTCLDY    28  27  93 CALM      30.15F
JONESVILLE*    PTCLDY    28  27  93 CALM      30.21S
ABINGDON*      MOCLDY    32  26  78 CALM      30.16S
BRISTOL        MOCLDY    31  27  85 CALM      30.17S
KNOXVILLE      CLOUDY    38  28  67 NW5       30.19S WCI  34
OAK RIDGE      CLOUDY    39  27  62 CALM      30.20R
CROSSVILLE     CLOUDY    35  26  69 NE5       30.16F WCI  31
NASHVILLE      CLOUDY    37  27  67 E7        30.24S WCI  32
$$

...KEY TO REMARKS...
VSB - VISIBILITY IN MILES
WCI - WIND CHILL INDEX
HX  - HEAT INDEX

$$



USA.gov is the U.S. government's official web portal to all federal, state and local government web resources and services.